Home > Time Zones > World Clock > Weather > Latvia > Riga > Past weeks

Flag for Latvia Weather past 2 weeks in Riga, Latvia

Now
32 °F

Passing clouds.


Feels Like: 26 °F
Forecast: 29 / 41 °F
Wind: 7 mph from Southwest

Location: Riga Airport

Current Time: Dec 21, 2014 at 8:59:55 PM

Latest Report: Dec 21, 2014 at 8:20 PM


Visibility: N/A

Pressure: 29.65 "Hg

Humidity: 87%

Dew point: 28 °F

Location of RigaLocation

Historic Weather in Riga — Graph

°F

Riga temperature yesterday

Maximum temperature yesterday: 41 °F (at 1:20 PM)
Minimum temperature yesterday: 34 °F (at 7:50 PM)
Average temperature yesterday: 38 °F

Past Weeks' High & Low Weather Summary

 TemperatureHumidityPressure
High48 °F (Dec 19, 12:20 PM)100% (Dec 6, 7:20 PM)30.27 "Hg (Dec 6, 7:20 PM)
Low28 °F (Dec 8, 1:20 AM)70% (Dec 13, 10:50 AM)29.00 "Hg (Dec 13, 5:20 AM)
Average36 °F93%29.69 "Hg
* Reported Dec 6 7:20 PM — Dec 21 7:50 PM, Riga, Weather by CustomWeather, © 2014

Note: Actual official high and low records may vary slightly from our data, if they occured in-between our weather recording intervals... More about our weather records

Advertising

Riga weather history for previous 24 hours

 ConditionsComfort  
Time TempWeatherWind HumidityBarometerVisibility
7:50 PM
Dec 21
32 °FPassing clouds.7 mph87%29.65 "HgN/A
7:20 PM32 °FPassing clouds.5 mph87%29.65 "HgN/A
6:50 PM32 °FClear.5 mph87%29.65 "Hg10 mi
6:20 PM34 °FPassing clouds.7 mph81%29.65 "HgN/A
5:50 PM34 °FPassing clouds.7 mph81%29.65 "HgN/A
5:20 PM32 °FPassing clouds.5 mph87%29.65 "HgN/A
4:50 PM34 °FPassing clouds.5 mph81%29.65 "HgN/A
4:20 PM34 °FPassing clouds.5 mph81%29.65 "HgN/A
3:50 PM36 °FPassing clouds.6 mph75%29.65 "HgN/A
3:20 PM36 °FScattered clouds.9 mph75%29.62 "HgN/A
2:50 PM37 °FScattered clouds.9 mph75%29.62 "HgN/A
2:20 PM37 °FScattered clouds.8 mph75%29.62 "HgN/A
1:20 PM37 °FScattered clouds.8 mph81%29.59 "HgN/A
12:50 PM37 °FScattered clouds.8 mph81%29.59 "HgN/A
12:20 PM37 °FBroken clouds.6 mph81%29.59 "HgN/A
11:50 AM37 °FPartly sunny.6 mph81%29.56 "HgN/A
11:20 AM36 °FPartly sunny.9 mph87%29.56 "HgN/A
10:50 AM36 °FPartly sunny.8 mph87%29.56 "HgN/A
10:20 AM36 °FPartly sunny.7 mph93%29.56 "HgN/A
9:50 AM36 °FBroken clouds.6 mph87%29.53 "HgN/A
9:20 AM36 °FBroken clouds.6 mph87%29.53 "HgN/A
8:50 AM36 °FPassing clouds.5 mph87%29.53 "HgN/A
8:20 AM34 °FPassing clouds.3 mph93%29.50 "HgN/A
7:50 AM34 °FOvercast.5 mph93%29.50 "HgN/A
7:20 AM36 °FOvercast.5 mph93%29.50 "HgN/A
6:50 AM36 °FPassing clouds.5 mph93%29.47 "HgN/A
6:20 AM36 °FPassing clouds.5 mph93%29.47 "HgN/A
5:50 AM36 °FPassing clouds.6 mph93%29.45 "HgN/A
5:20 AM34 °FPassing clouds.3 mph100%29.45 "HgN/A
4:50 AM36 °FPassing clouds.5 mph93%29.45 "HgN/A
4:20 AM36 °FPassing clouds.5 mph93%29.42 "HgN/A
3:50 AM36 °FPassing clouds.3 mph93%29.42 "HgN/A
3:20 AM36 °FPassing clouds.5 mph93%29.42 "HgN/A
2:20 AM34 °FPassing clouds.5 mph100%29.39 "HgN/A
1:50 AM34 °FPassing clouds.6 mph100%29.39 "HgN/A
1:20 AM34 °FPassing clouds.5 mph100%29.36 "HgN/A
12:50 AM34 °FPassing clouds.5 mph100%29.36 "HgN/A
12:20 AM36 °FPassing clouds.5 mph93%29.33 "HgN/A
11:50 PM
Dec 20
36 °FPartly cloudy.6 mph93%29.33 "HgN/A
11:20 PM36 °FPartly cloudy.5 mph93%29.33 "HgN/A
10:50 PM36 °FPartly cloudy.5 mph100%29.33 "HgN/A
10:20 PM36 °FPartly cloudy.5 mph100%29.30 "HgN/A
9:50 PM36 °FPartly cloudy.6 mph100%29.30 "HgN/A
9:20 PM36 °FPassing clouds.7 mph100%29.30 "HgN/A
8:50 PM34 °FPassing clouds.7 mph100%29.27 "HgN/A
8:20 PM34 °FPassing clouds.6 mph100%29.27 "HgN/A
Weather by CustomWeather, © 2014

See weather overviewHow to use our weather pages